| time (UTC) | temp F | wind direction | speed knots | gust knots | rain 1hr in | rain 24hr in | rain mn in | humidity % | barometer mb |
| 20260503000528 | 48 | 0 | 0.0 | 0.0 | 0.00 | 0.05 | 0.05 | 90 | 1010.2 |
| 20260503000037 | 48 | 0 | 0.0 | 0.0 | 0.00 | 0.05 | 0.05 | 90 | 1010.2 |
| 20260502235529 | 48 | 0 | 0.0 | 0.0 | 0.00 | 0.05 | 0.05 | 90 | 1010.2 |
| 20260502235030 | 48 | 0 | 0.0 | 0.0 | 0.00 | 0.05 | 0.05 | 90 | 1010.2 |
| 20260502234539 | 48 | 0 | 0.0 | 0.0 | 0.00 | 0.05 | 0.05 | 91 | 1010.2 |
| 20260502234030 | 48 | 0 | 0.0 | 0.0 | 0.00 | 0.05 | 0.05 | 91 | 1010.2 |
| 20260502233530 | 48 | 0 | 0.0 | 0.0 | 0.00 | 0.05 | 0.05 | 91 | 1010.3 |
| 20260502233035 | 48 | 0 | 0.0 | 0.0 | 0.00 | 0.05 | 0.05 | 92 | 1010.2 |
| 20260502232529 | 48 | 0 | 0.0 | 0.0 | 0.00 | 0.05 | 0.05 | 91 | 1010.1 |
| 20260502232030 | 48 | 0 | 0.0 | 0.0 | 0.00 | 0.05 | 0.05 | 91 | 1010.2 |
| 20260502231544 | 48 | 0 | 0.0 | 0.0 | 0.00 | 0.05 | 0.05 | 91 | 1010.2 |
| 20260502231029 | 48 | 0 | 0.0 | 0.0 | 0.00 | 0.05 | 0.05 | 91 | 1010.2 |
| 20260502230530 | 48 | 0 | 0.0 | 0.0 | 0.01 | 0.05 | 0.05 | 91 | 1010.2 |
| 20260502230043 | 48 | 0 | 0.0 | 0.0 | 0.01 | 0.05 | 0.05 | 91 | 1010.2 |
| 20260502225530 | 48 | 0 | 0.0 | 0.0 | 0.01 | 0.05 | 0.05 | 91 | 1010.1 |
| 20260502225029 | 48 | 0 | 0.0 | 0.0 | 0.01 | 0.05 | 0.05 | 91 | 1010.1 |
| 20260502224540 | 48 | 0 | 0.0 | 0.0 | 0.01 | 0.05 | 0.05 | 90 | 1010.1 |
| 20260502224030 | 48 | 0 | 0.0 | 0.0 | 0.01 | 0.05 | 0.05 | 90 | 1010.1 |
| 20260502223534 | 48 | 0 | 0.0 | 0.0 | 0.01 | 0.05 | 0.05 | 89 | 1010.1 |
| 20260502223048 | 48 | 0 | 0.0 | 0.9 | 0.01 | 0.05 | 0.05 | 89 | 1010.1 |
| 20260502222531 | 48 | 0 | 0.0 | 0.9 | 0.01 | 0.05 | 0.05 | 88 | 1010.1 |
| 20260502222030 | 49 | 0 | 0.0 | 1.7 | 0.01 | 0.05 | 0.05 | 87 | 1010.0 |
| 20260502221548 | 49 | 0 | 0.0 | 1.7 | 0.01 | 0.05 | 0.05 | 86 | 1010.2 |
| 20260502221029 | 49 | 249 | 0.0 | 1.7 | 0.01 | 0.05 | 0.05 | 84 | 1010.3 |
| 20260502220526 | 49 | 0 | 0.0 | 0.9 | 0.00 | 0.04 | 0.04 | 84 | 1010.3 |
| 20260502220044 | 50 | 0 | 0.0 | 1.7 | 0.00 | 0.04 | 0.04 | 83 | 1010.4 |
| 20260502215529 | 50 | 0 | 0.0 | 2.6 | 0.00 | 0.04 | 0.04 | 82 | 1010.3 |
| 20260502215030 | 50 | 271 | 0.0 | 2.6 | 0.00 | 0.04 | 0.04 | 82 | 1010.2 |
| 20260502214550 | 51 | 0 | 0.9 | 2.6 | 0.00 | 0.04 | 0.04 | 81 | 1010.3 |
| 20260502214030 | 51 | 256 | 0.9 | 3.5 | 0.00 | 0.04 | 0.04 | 80 | 1010.2 |
| 20260502213529 | 51 | 0 | 0.9 | 3.5 | 0.00 | 0.04 | 0.04 | 80 | 1010.2 |
| 20260502213042 | 51 | 164 | 0.9 | 2.6 | 0.00 | 0.04 | 0.04 | 79 | 1010.1 |
| 20260502212529 | 51 | 149 | 0.9 | 3.5 | 0.00 | 0.04 | 0.04 | 80 | 1010.0 |
| 20260502212029 | 52 | 146 | 1.7 | 5.2 | 0.00 | 0.04 | 0.04 | 80 | 1010.0 |
| 20260502211544 | 52 | 139 | 0.9 | 5.2 | 0.00 | 0.04 | 0.04 | 80 | 1010.0 |
| 20260502211030 | 52 | 153 | 1.7 | 5.2 | 0.00 | 0.04 | 0.04 | 80 | 1009.9 |
| 20260502210530 | 52 | 121 | 1.7 | 6.1 | 0.00 | 0.04 | 0.04 | 79 | 1009.9 |
| 20260502210047 | 52 | 155 | 2.6 | 7.0 | 0.00 | 0.04 | 0.04 | 80 | 1009.9 |
| 20260502205530 | 52 | 134 | 2.6 | 7.0 | 0.00 | 0.04 | 0.04 | 78 | 1009.8 |
| 20260502205029 | 53 | 139 | 2.6 | 5.2 | 0.00 | 0.04 | 0.04 | 78 | 1009.9 |
| 20260502204537 | 52 | 118 | 1.7 | 6.1 | 0.00 | 0.04 | 0.04 | 79 | 1009.9 |
| 20260502204030 | 52 | 194 | 2.6 | 6.1 | 0.00 | 0.04 | 0.04 | 78 | 1010.0 |
| 20260502203530 | 53 | 158 | 0.9 | 3.5 | 0.00 | 0.04 | 0.04 | 78 | 1010.0 |
| 20260502203047 | 53 | 122 | 0.9 | 6.1 | 0.00 | 0.04 | 0.04 | 77 | 1010.0 |
| 20260502202532 | 52 | 117 | 1.7 | 8.7 | 0.00 | 0.04 | 0.04 | 78 | 1010.0 |
| 20260502202028 | 52 | 96 | 2.6 | 8.7 | 0.00 | 0.04 | 0.04 | 76 | 1009.9 |
| 20260502201541 | 53 | 177 | 2.6 | 8.7 | 0.00 | 0.04 | 0.04 | 75 | 1010.0 |
| 20260502201029 | 53 | 141 | 3.5 | 6.1 | 0.00 | 0.04 | 0.04 | 75 | 1010.0 |
| 20260502200529 | 53 | 119 | 3.5 | 6.1 | 0.00 | 0.04 | 0.04 | 78 | 1010.1 |
| 20260502200035 | 53 | 136 | 2.6 | 6.1 | 0.00 | 0.04 | 0.04 | 76 | 1010.1 |
| 20260502195530 | 53 | 166 | 2.6 | 6.1 | 0.00 | 0.04 | 0.04 | 76 | 1010.2 |
| 20260502195029 | 53 | 136 | 2.6 | 5.2 | 0.00 | 0.04 | 0.04 | 75 | 1010.3 |
| 20260502194540 | 53 | 146 | 2.6 | 6.1 | 0.00 | 0.04 | 0.04 | 77 | 1010.6 |
| 20260502194029 | 53 | 113 | 2.6 | 7.0 | 0.00 | 0.04 | 0.04 | 78 | 1010.5 |
| 20260502193530 | 53 | 158 | 3.5 | 7.0 | 0.00 | 0.04 | 0.04 | 77 | 1010.4 |
| 20260502193037 | 53 | 198 | 4.3 | 7.0 | 0.00 | 0.04 | 0.04 | 75 | 1010.5 |
| 20260502192529 | 53 | 121 | 2.6 | 7.0 | 0.00 | 0.04 | 0.04 | 77 | 1010.5 |
| 20260502192027 | 53 | 149 | 2.6 | 5.2 | 0.00 | 0.04 | 0.04 | 79 | 1010.7 |
| 20260502191536 | 53 | 92 | 2.6 | 7.8 | 0.00 | 0.04 | 0.04 | 82 | 1010.6 |
| 20260502191029 | 52 | 209 | 2.6 | 7.8 | 0.00 | 0.04 | 0.04 | 80 | 1010.6 |
| 20260502190529 | 52 | 150 | 2.6 | 7.0 | 0.00 | 0.04 | 0.04 | 79 | 1010.8 |
| 20260502190036 | 51 | 169 | 2.6 | 6.1 | 0.00 | 0.04 | 0.04 | 79 | 1010.8 |
| 20260502185529 | 51 | 103 | 2.6 | 6.1 | 0.00 | 0.04 | 0.04 | 82 | 1010.8 |
| 20260502185029 | 50 | 158 | 2.6 | 5.2 | 0.01 | 0.04 | 0.04 | 81 | 1010.8 |
| 20260502184543 | 50 | 176 | 1.7 | 3.5 | 0.01 | 0.04 | 0.04 | 85 | 1010.9 |
| 20260502184029 | 49 | 156 | 1.7 | 3.5 | 0.01 | 0.04 | 0.04 | 84 | 1010.9 |
| 20260502183528 | 49 | 160 | 1.7 | 3.5 | 0.01 | 0.04 | 0.04 | 86 | 1011.1 |
| 20260502183039 | 49 | 158 | 1.7 | 3.5 | 0.01 | 0.04 | 0.04 | 88 | 1011.1 |
| 20260502182529 | 49 | 145 | 1.7 | 5.2 | 0.01 | 0.04 | 0.04 | 87 | 1011.1 |
| 20260502182027 | 49 | 118 | 2.6 | 5.2 | 0.02 | 0.04 | 0.04 | 86 | 1011.0 |
| 20260502181536 | 49 | 110 | 1.7 | 3.5 | 0.02 | 0.04 | 0.04 | 86 | 1011.2 |
| 20260502181029 | 49 | 160 | 1.7 | 4.3 | 0.02 | 0.04 | 0.04 | 87 | 1011.1 |
| 20260502180531 | 49 | 136 | 1.7 | 4.3 | 0.02 | 0.04 | 0.04 | 86 | 1011.2 |
| 20260502164029 | 50 | 0 | 0.0 | 0.0 | 0.02 | 0.02 | 0.02 | 79 | 1011.4 |
| 20260502163528 | 50 | 0 | 0.0 | 0.9 | 0.02 | 0.02 | 0.02 | 78 | 1011.5 |
| 20260502163039 | 50 | 0 | 0.0 | 4.3 | 0.01 | 0.01 | 0.01 | 77 | 1011.4 |
| 20260502162534 | 51 | 186 | 1.7 | 5.2 | 0.01 | 0.01 | 0.01 | 74 | 1011.4 |
| 20260502162029 | 51 | 197 | 0.0 | 5.2 | 0.01 | 0.01 | 0.01 | 73 | 1011.3 |
| 20260502161536 | 52 | 179 | 3.5 | 5.2 | 0.01 | 0.01 | 0.01 | 70 | 1011.4 |
| 20260502161032 | 52 | 238 | 1.7 | 4.3 | 0.01 | 0.01 | 0.01 | 74 | 1011.3 |
| 20260502160532 | 53 | 137 | 2.6 | 4.3 | 0.00 | 0.00 | 0.00 | 73 | 1011.6 |
| 20260502152026 | 53 | 139 | 0.9 | 2.6 | 0.00 | 0.00 | 0.00 | 77 | 1011.6 |
| 20260502151536 | 53 | 159 | 0.0 | 2.6 | 0.00 | 0.00 | 0.00 | 77 | 1011.7 |
| 20260502151026 | 52 | 0 | 0.0 | 5.2 | 0.00 | 0.00 | 0.00 | 77 | 1011.7 |
| 20260502150528 | 53 | 91 | 0.9 | 5.2 | 0.00 | 0.00 | 0.00 | 77 | 1011.9 |
| 20260502130532 | 49 | 0 | 0.0 | 1.7 | 0.00 | 0.00 | 0.00 | 84 | 1012.6 |
| 20260502123529 | 49 | 273 | 0.0 | 3.5 | 0.00 | 0.00 | 0.00 | 81 | 1012.7 |
| 20260502123044 | 49 | 227 | 0.9 | 3.5 | 0.00 | 0.00 | 0.00 | 80 | 1012.7 |
| 20260502122529 | 49 | 0 | 1.7 | 3.5 | 0.00 | 0.00 | 0.00 | 79 | 1012.7 |
| 20260502122029 | 50 | 263 | 0.9 | 2.6 | 0.00 | 0.00 | 0.00 | 79 | 1012.6 |
| 20260502121542 | 50 | 192 | 0.0 | 2.6 | 0.00 | 0.00 | 0.00 | 79 | 1012.5 |
| 20260502121028 | 50 | 230 | 0.0 | 2.6 | 0.00 | 0.00 | 0.00 | 79 | 1012.4 |
| 20260502120528 | 50 | 159 | 0.9 | 2.6 | 0.00 | 0.00 | 0.00 | 79 | 1012.2 |
| 20260502115529 | 50 | 217 | 0.9 | 3.5 | 0.00 | 0.00 | 0.00 | 79 | 1012.1 |
| 20260502115028 | 50 | 194 | 1.7 | 2.6 | 0.00 | 0.00 | 0.00 | 79 | 1012.2 |
| 20260502114559 | 50 | 192 | 0.9 | 1.7 | 0.00 | 0.00 | 0.00 | 80 | 1012.0 |
| 20260502114029 | 49 | 0 | 0.0 | 0.9 | 0.00 | 0.00 | 0.00 | 81 | 1011.9 |
| 20260502113526 | 48 | 0 | 0.0 | 1.7 | 0.00 | 0.00 | 0.00 | 81 | 1011.7 |
| 20260502113036 | 48 | 0 | 0.0 | 1.7 | 0.00 | 0.00 | 0.00 | 82 | 1011.8 |
| 20260502112526 | 48 | 150 | 0.0 | 0.9 | 0.00 | 0.00 | 0.00 | 81 | 1011.8 |
| 20260502112031 | 48 | 0 | 0.0 | 0.9 | 0.00 | 0.00 | 0.00 | 81 | 1011.7 |
| 20260502111536 | 48 | 141 | 0.0 | 0.9 | 0.00 | 0.00 | 0.00 | 82 | 1011.6 |
| 20260502111026 | 47 | 141 | 0.0 | 0.9 | 0.00 | 0.00 | 0.00 | 81 | 1011.9 |
| 20260502110529 | 47 | 193 | 0.0 | 1.7 | 0.00 | 0.00 | 0.00 | 81 | 1011.9 |
| 20260502110035 | 47 | 0 | 0.0 | 2.6 | 0.00 | 0.00 | 0.00 | 81 | 1011.8 |
| 20260502105532 | 47 | 144 | 0.9 | 2.6 | 0.00 | 0.00 | 0.00 | 82 | 1011.7 |
| 20260502105030 | 47 | 133 | 0.0 | 2.6 | 0.00 | 0.00 | 0.00 | 82 | 1011.8 |
| 20260502104540 | 47 | 142 | 0.0 | 2.6 | 0.00 | 0.00 | 0.00 | 82 | 1011.8 |
| 20260502104029 | 47 | 0 | 0.0 | 0.9 | 0.00 | 0.00 | 0.00 | 83 | 1011.7 |
| 20260502103529 | 46 | 0 | 0.0 | 0.9 | 0.00 | 0.00 | 0.00 | 83 | 1011.5 |
| 20260502103037 | 47 | 0 | 0.0 | 1.7 | 0.00 | 0.00 | 0.00 | 83 | 1011.6 |
| 20260502102529 | 46 | 0 | 0.0 | 1.7 | 0.00 | 0.00 | 0.00 | 83 | 1011.6 |
| 20260502102029 | 46 | 144 | 0.9 | 1.7 | 0.00 | 0.00 | 0.00 | 84 | 1011.7 |
| 20260502101548 | 46 | 0 | 0.0 | 1.7 | 0.00 | 0.00 | 0.00 | 84 | 1011.6 |
| 20260502101028 | 46 | 0 | 0.0 | 0.0 | 0.00 | 0.00 | 0.00 | 85 | 1011.6 |
| 20260502100525 | 46 | 0 | 0.0 | 0.0 | 0.00 | 0.00 | 0.00 | 85 | 1011.4 |
| 20260502091029 | 46 | 0 | 0.0 | 0.0 | 0.00 | 0.00 | 0.00 | 84 | 1011.4 |
| 20260502090528 | 46 | 0 | 0.0 | 2.6 | 0.00 | 0.00 | 0.00 | 84 | 1011.3 |
| 20260502071025 | 48 | 0 | 0.0 | 0.9 | 0.00 | 0.00 | 0.00 | 73 | 1011.2 |
| 20260502070526 | 49 | 212 | 0.0 | 0.9 | 0.00 | 0.00 | 0.00 | 72 | 1011.2 |
| 20260502070046 | 49 | 0 | 0.0 | 0.9 | 0.00 | 0.00 | 0.00 | 72 | 1011.2 |
| 20260502065529 | 49 | 0 | 0.0 | 0.9 | 0.00 | 0.00 | 0.00 | 72 | 1011.2 |
| 20260502065027 | 49 | 0 | 0.0 | 0.9 | 0.00 | 0.00 | 0.00 | 71 | 1011.2 |
| 20260502064603 | 49 | 0 | 0.0 | 0.9 | 0.00 | 0.00 | 0.00 | 71 | 1011.4 |
| 20260502064029 | 49 | 214 | 0.0 | 0.9 | 0.00 | 0.00 | 0.00 | 71 | 1011.4 |
| 20260502063526 | 49 | 0 | 0.0 | 0.9 | 0.00 | 0.00 | 0.00 | 71 | 1011.5 |
| 20260502063054 | 49 | 0 | 0.0 | 2.6 | 0.00 | 0.00 | 0.00 | 71 | 1011.6 |
| 20260502062529 | 49 | 233 | 0.0 | 2.6 | 0.00 | 0.00 | 0.00 | 71 | 1011.4 |
| 20260502062030 | 49 | 0 | 0.9 | 4.3 | 0.00 | 0.00 | 0.00 | 70 | 1011.4 |
| 20260502061535 | 49 | 0 | 0.9 | 4.3 | 0.00 | 0.00 | 0.00 | 71 | 1011.4 |
| 20260502061025 | 49 | 202 | 0.0 | 2.6 | 0.00 | 0.00 | 0.00 | 71 | 1011.4 |
| 20260502060527 | 49 | 196 | 0.9 | 2.6 | 0.00 | 0.00 | 0.00 | 71 | 1011.5 |
| 20260502060046 | 49 | 201 | 0.0 | 0.9 | 0.00 | 0.00 | 0.00 | 71 | 1011.4 |
| 20260502055526 | 49 | 0 | 0.0 | 2.6 | 0.00 | 0.00 | 0.00 | 71 | 1011.5 |
| 20260502055030 | 49 | 0 | 0.9 | 2.6 | 0.00 | 0.00 | 0.00 | 71 | 1011.4 |
| 20260502054536 | 49 | 168 | 0.0 | 0.0 | 0.00 | 0.00 | 0.00 | 70 | 1011.4 |
| 20260502054029 | 49 | 0 | 0.0 | 1.7 | 0.00 | 0.00 | 0.00 | 71 | 1011.4 |
| 20260502053529 | 49 | 0 | 0.0 | 1.7 | 0.00 | 0.00 | 0.00 | 71 | 1011.6 |
| 20260502053042 | 49 | 0 | 0.0 | 1.7 | 0.00 | 0.00 | 0.00 | 71 | 1011.6 |
| 20260502052526 | 48 | 0 | 0.0 | 1.7 | 0.00 | 0.00 | 0.00 | 70 | 1011.6 |
| 20260502052029 | 48 | 195 | 0.0 | 1.7 | 0.00 | 0.00 | 0.00 | 70 | 1011.6 |
| 20260502051536 | 48 | 168 | 0.0 | 0.9 | 0.00 | 0.00 | 0.00 | 70 | 1011.6 |
| 20260502051028 | 48 | 0 | 0.0 | 0.9 | 0.00 | 0.00 | 0.00 | 70 | 1011.6 |
| 20260502050526 | 48 | 155 | 0.0 | 0.9 | 0.00 | 0.00 | 0.00 | 69 | 1011.5 |
| 20260502050036 | 48 | 0 | 0.0 | 0.0 | 0.00 | 0.00 | 0.00 | 69 | 1011.6 |
| 20260502045526 | 49 | 0 | 0.0 | 0.0 | 0.00 | 0.00 | 0.00 | 68 | 1011.6 |
| 20260502045025 | 49 | 0 | 0.0 | 0.0 | 0.00 | 0.00 | 0.00 | 67 | 1011.6 |
| 20260502044537 | 49 | 0 | 0.0 | 0.0 | 0.00 | 0.00 | 0.00 | 67 | 1011.5 |
| 20260502044026 | 49 | 0 | 0.0 | 0.0 | 0.00 | 0.00 | 0.00 | 67 | 1011.6 |
| 20260502043526 | 49 | 0 | 0.0 | 0.0 | 0.00 | 0.00 | 0.00 | 66 | 1011.7 |
| 20260502043050 | 49 | 0 | 0.0 | 0.0 | 0.00 | 0.00 | 0.00 | 66 | 1011.7 |
| 20260502042527 | 49 | 0 | 0.0 | 0.0 | 0.00 | 0.00 | 0.00 | 65 | 1011.7 |
| 20260502042027 | 50 | 0 | 0.0 | 0.0 | 0.00 | 0.00 | 0.00 | 65 | 1011.7 |
| 20260502041541 | 50 | 0 | 0.0 | 0.0 | 0.00 | 0.00 | 0.00 | 64 | 1011.7 |
| 20260502041027 | 50 | 0 | 0.0 | 0.9 | 0.00 | 0.00 | 0.00 | 64 | 1011.7 |
| 20260502040531 | 50 | 0 | 0.0 | 0.9 | 0.00 | 0.00 | 0.00 | 63 | 1011.7 |
| 20260502040039 | 50 | 0 | 0.0 | 0.9 | 0.00 | 0.00 | 0.00 | 63 | 1011.8 |
| 20260502035526 | 50 | 0 | 0.0 | 0.9 | 0.00 | 0.00 | 0.00 | 62 | 1011.7 |
| 20260502035028 | 50 | 240 | 0.0 | 0.9 | 0.00 | 0.00 | 0.00 | 62 | 1011.7 |
| 20260502034537 | 51 | 0 | 0.0 | 0.9 | 0.00 | 0.00 | 0.00 | 62 | 1011.7 |
| 20260502034027 | 51 | 0 | 0.0 | 0.9 | 0.00 | 0.00 | 0.00 | 62 | 1011.6 |
| 20260502033527 | 51 | 251 | 0.0 | 0.9 | 0.00 | 0.00 | 0.00 | 60 | 1011.7 |
| 20260502033037 | 51 | 0 | 0.0 | 0.9 | 0.00 | 0.00 | 0.00 | 60 | 1011.7 |
| 20260502032525 | 51 | 0 | 0.0 | 0.9 | 0.00 | 0.00 | 0.00 | 60 | 1011.8 |
| 20260502032027 | 51 | 0 | 0.0 | 1.7 | 0.00 | 0.00 | 0.00 | 59 | 1011.8 |
| 20260502031537 | 51 | 0 | 0.0 | 1.7 | 0.00 | 0.00 | 0.00 | 59 | 1011.7 |
| 20260502031030 | 51 | 0 | 0.0 | 0.9 | 0.00 | 0.00 | 0.00 | 58 | 1011.7 |
| 20260502030529 | 51 | 211 | 0.0 | 1.7 | 0.00 | 0.00 | 0.00 | 57 | 1011.7 |
| 20260502030048 | 52 | 0 | 0.0 | 1.7 | 0.00 | 0.00 | 0.00 | 56 | 1011.5 |
| 20260502025528 | 51 | 217 | 0.0 | 1.7 | 0.00 | 0.00 | 0.00 | 56 | 1011.4 |
| 20260502025030 | 51 | 233 | 0.0 | 1.7 | 0.00 | 0.00 | 0.00 | 55 | 1011.5 |
| 20260502024540 | 51 | 259 | 0.0 | 1.7 | 0.00 | 0.00 | 0.00 | 55 | 1011.4 |
| 20260502024028 | 51 | 219 | 0.0 | 1.7 | 0.00 | 0.00 | 0.00 | 55 | 1011.5 |
| 20260502023528 | 51 | 0 | 0.0 | 1.7 | 0.00 | 0.00 | 0.00 | 55 | 1011.5 |
| 20260502023036 | 51 | 201 | 0.0 | 2.6 | 0.00 | 0.00 | 0.00 | 55 | 1011.5 |
| 20260502022525 | 51 | 0 | 0.0 | 2.6 | 0.00 | 0.00 | 0.00 | 55 | 1011.6 |
| 20260502022028 | 50 | 0 | 0.9 | 2.6 | 0.00 | 0.00 | 0.00 | 56 | 1011.6 |
| 20260502021536 | 50 | 0 | 0.0 | 0.0 | 0.00 | 0.00 | 0.00 | 56 | 1011.6 |
| 20260502021027 | 49 | 0 | 0.0 | 0.0 | 0.00 | 0.00 | 0.00 | 57 | 1011.5 |
| 20260502020533 | 47 | 214 | 0.0 | 0.9 | 0.00 | 0.00 | 0.00 | 60 | 1011.4 |
| 20260502020036 | 47 | 198 | 0.0 | 0.9 | 0.00 | 0.00 | 0.00 | 68 | 1011.4 |
| 20260502015529 | 47 | 0 | 0.0 | 0.0 | 0.00 | 0.00 | 0.00 | 69 | 1011.2 |
| 20260502015026 | 47 | 0 | 0.0 | 0.0 | 0.00 | 0.00 | 0.00 | 66 | 1011.1 |
| 20260502014536 | 47 | 0 | 0.0 | 0.0 | 0.00 | 0.00 | 0.00 | 64 | 1011.1 |
| 20260502014025 | 47 | 0 | 0.0 | 0.0 | 0.00 | 0.00 | 0.00 | 65 | 1011.0 |
| 20260502013529 | 47 | 0 | 0.0 | 0.0 | 0.00 | 0.00 | 0.00 | 64 | 1011.1 |
| 20260502013049 | 48 | 0 | 0.0 | 0.0 | 0.00 | 0.00 | 0.00 | 63 | 1011.1 |
| 20260502012528 | 48 | 0 | 0.0 | 0.0 | 0.00 | 0.00 | 0.00 | 64 | 1011.0 |
| 20260502012031 | 48 | 0 | 0.0 | 0.0 | 0.00 | 0.00 | 0.00 | 63 | 1011.0 |
| 20260502011539 | 48 | 0 | 0.0 | 0.0 | 0.00 | 0.00 | 0.00 | 60 | 1011.1 |
| 20260502011027 | 49 | 0 | 0.0 | 0.0 | 0.00 | 0.00 | 0.00 | 60 | 1011.0 |
| 20260502010527 | 49 | 0 | 0.0 | 0.0 | 0.00 | 0.00 | 0.00 | 59 | 1010.9 |
| 20260502010038 | 50 | 0 | 0.0 | 0.0 | 0.00 | 0.00 | 0.00 | 56 | 1010.8 |
| 20260502005528 | 50 | 0 | 0.0 | 0.0 | 0.00 | 0.00 | 0.00 | 56 | 1010.7 |
| 20260502005028 | 50 | 0 | 0.0 | 0.0 | 0.00 | 0.00 | 0.00 | 54 | 1010.6 |
| 20260502004541 | 51 | 0 | 0.0 | 0.0 | 0.00 | 0.00 | 0.00 | 52 | 1010.7 |
| 20260502004028 | 51 | 0 | 0.0 | 0.0 | 0.00 | 0.00 | 0.00 | 50 | 1010.6 |
| 20260502003529 | 52 | 0 | 0.0 | 0.0 | 0.00 | 0.00 | 0.00 | 49 | 1010.5 |
| 20260502003035 | 52 | 0 | 0.0 | 0.0 | 0.00 | 0.00 | 0.00 | 49 | 1010.4 |
| 20260502002529 | 53 | 0 | 0.0 | 0.0 | 0.00 | 0.00 | 0.00 | 48 | 1010.4 |
| 20260502002029 | 53 | 0 | 0.0 | 0.0 | 0.00 | 0.00 | 0.00 | 47 | 1010.3 |
| 20260502001537 | 54 | 0 | 0.0 | 0.0 | 0.00 | 0.00 | 0.00 | 44 | 1010.2 |
| 20260502001029 | 54 | 0 | 0.0 | 0.0 | 0.00 | 0.00 | 0.00 | 42 | 1010.1 |